STARLINK-31548

operational
NORAD ID: 59193 Int'l Des: 2024-045 Owner: SPXS Country: US Constellation: starlink
LEOCIRCULAR

Über STARLINK-31548

Beschreibung wird geladen...

Live-Position

3D-Globus wird geladen...

Nächste Überflüge

Höhenverlauf

Altitude vs Time

uPlot chart will show altitude changes over time

Zweizeiliger Elementsatz

1 59193U 24045R 25251.43534784 .00004004 00000-0 15503-3 0 9990
2 59193 42.9978 42.1825 0001216 195.5371 164.5444 15.27564081 85281
Epoch: 8. Sept. 2025 • Age: 15 hours

Aktueller Status

Höhe 483.3 km
Geschwindigkeit 7.63 km/s
Subsatellitenpunkt 30.06°N, 174.99°E
Startdatum 11. März 2024
Alter 1.4 years
Typ internet

Technische Details

Klassifizierung Payload
Masse 730.00 kg
Trockenmasse 700.00 kg
Gesamtmasse 730.00 kg
Länge 0.30 m
Durchmesser 4.10 m
Spannweite 29.00 m
Form Box + pan
Hersteller SPXS
Bus-Typ Starlink V2M
Phasenstatus In Orbit
Besitzer/Staat SPXS/US

Große Konstellationen

Loading constellations...